Weather History for Naples, FL

Change the Weather History Date:

Thursday, January 3, 2013

  Actual Average Record
Temperature  
Mean Temperature 73 °F 65 °F  
Max Temperature 82 °F 75 °F 86 °F (1973)
Min Temperature 63 °F 54 °F 34 °F (1979)
Degree Days  
Heating Degree Days 0 3  
Month to date heating degree days 0 9  
Since 1 July heating degree days 49 87  
Cooling Degree Days 8 3  
Month to date cooling degree days 18 9  
Year to date cooling degree days 18 9  
Growing Degree Days 22 (Base 50)    
Moisture  
Dew Point 66 °F    
Average Humidity 77    
Maximum Humidity 100    
Minimum Humidity 54    
Precipitation  
Precipitation 0.00 in 0.04 in 1.30 in (1996)
Month to date precipitation 0.00 0.15  
Year to date precipitation 0.00 0.15  
Snow  
Snow 0.00 in - - ()
Month to date snowfall 0.0  
Since 1 July snowfall 0.0  
Snow Depth 0.00 in    
Sea Level Pressure  
Sea Level Pressure 30.07 in    
Wind  
Wind Speed 6 mph (ESE)    
Max Wind Speed 16 mph    
Max Gust Speed 21 mph    
Visibility 4 miles    
Events Fog    
T = Trace of Precipitation, MM = Missing Value Source: NWS Daily Summary

Daily Weather History Graph

Daily Weather History Graph

Search for Another Location

Airport:

Trip Planner

Search our weather history database for the weather conditions in past years. The results will help you decide how hot, cold, wet, or windy it might be!

Date:

Astronomy

Jan. 03, 2013 Rise Set
Actual Time 7:15 AM EST 5:48 PM EST
Civil Twilight 6:50 AM EST 6:13 PM EST
Nautical Twilight 6:21 AM EST 6:42 PM EST
Astronomical Twilight 5:53 AM EST 7:10 PM EST
Moon 11:41 PM EST (1/3) 11:03 AM EST (1/3)
Length of Visible Light 11h 23m
Length of Day
10h 33m
Waning Gibbous, 65% of the Moon is Illuminated
Jan 3
Waning Gibbous
Jan 4
Last Quarter
Jan 11
New
Jan 18
First Quarter
Jan 26
Full

Hourly Weather History & Observations

Time (EST) Temp. Heat Index Dew Point Humidity Pressure Visibility Wind Dir Wind Speed Gust Speed Precip Events Conditions
12:13 AM 64.4 °F - 64.4 °F 100% 30.06 in 1.5 mi Calm Calm - N/A   Scattered Clouds
12:19 AM 64.4 °F - 64.4 °F 100% 30.06 in 0.8 mi Calm Calm - N/A   Mist
12:24 AM 64.4 °F - 64.4 °F 100% 30.06 in 1.2 mi Calm Calm - N/A   Scattered Clouds
12:28 AM 64.4 °F - 64.4 °F 100% 30.06 in 3.0 mi Calm Calm - N/A   Scattered Clouds
12:46 AM 64.4 °F - 64.4 °F 100% 30.06 in 5.0 mi Calm Calm - N/A   Mostly Cloudy
12:50 AM 64.4 °F - 64.4 °F 100% 30.06 in 2.5 mi Calm Calm - N/A   Mostly Cloudy
12:53 AM 64.0 °F - 64.0 °F 100% 30.06 in 2.0 mi Calm Calm - N/A   Mostly Cloudy
1:05 AM 64.4 °F - 64.4 °F 100% 30.06 in 0.8 mi Calm Calm - N/A   Mist
1:13 AM 64.4 °F - 64.4 °F 100% 30.06 in 0.2 mi Calm Calm - N/A Fog Fog
1:20 AM 64.4 °F - 64.4 °F 100% 30.06 in 0.2 mi Calm Calm - N/A Fog Fog
2:31 AM 62.6 °F - 62.6 °F 100% 30.06 in 0.5 mi NE 4.6 mph - N/A Fog Fog
2:50 AM 64.4 °F - 64.4 °F 100% 30.06 in 0.2 mi NE 3.5 mph - N/A Fog Fog
2:53 AM 64.0 °F - 64.0 °F 100% 30.06 in 0.2 mi Calm Calm - N/A Fog Fog
3:00 AM 64.4 °F - 64.4 °F 100% 30.06 in 0.2 mi Calm Calm - N/A Fog Fog
3:27 AM 64.4 °F - 64.4 °F 100% 30.06 in 0.2 mi Calm Calm - N/A Fog Fog
3:53 AM 64.0 °F - 64.0 °F 100% 30.05 in 0.2 mi ENE 3.5 mph - N/A Fog Fog
4:28 AM 64.4 °F - 64.4 °F 100% 30.05 in 0.5 mi ENE 3.5 mph - N/A Fog Fog
4:48 AM 64.4 °F - 64.4 °F 100% 30.05 in 0.2 mi East 3.5 mph - N/A Fog Fog
4:53 AM 64.0 °F - 64.0 °F 100% 30.04 in 0.2 mi ENE 3.5 mph - N/A Fog Fog
5:53 AM 64.0 °F - 64.0 °F 100% 30.06 in 0.2 mi East 3.5 mph - N/A Fog Fog
6:53 AM 63.0 °F - 63.0 °F 100% 30.07 in 0.2 mi Calm Calm - N/A Fog Fog
7:53 AM 63.0 °F - 63.0 °F 100% 30.09 in 0.2 mi East 3.5 mph - N/A Fog Fog
8:51 AM 64.4 °F - 64.4 °F 100% 30.11 in 0.8 mi East 3.5 mph - N/A   Mist
8:52 AM 64.9 °F - 64.9 °F 100% 30.11 in 0.8 mi East 3.5 mph - N/A   Mist
9:03 AM 66.2 °F - 66.2 °F 100% 30.11 in 1.8 mi East 5.8 mph - N/A   Overcast
9:06 AM 64.4 °F - 64.4 °F 100% 30.11 in 3.0 mi East 5.8 mph - N/A   Overcast
9:20 AM 66.2 °F - 66.2 °F 100% 30.11 in 7.0 mi East 5.8 mph - N/A   Scattered Clouds
9:53 AM 70.0 °F - 68.0 °F 93% 30.11 in 9.0 mi East 5.8 mph - N/A   Clear
10:53 AM 75.9 °F - 70.0 °F 82% 30.10 in 10.0 mi SE 8.1 mph - N/A   Scattered Clouds
11:53 AM 80.1 °F 82.7 °F 68.0 °F 67% 30.08 in 10.0 mi SSE 9.2 mph - N/A   Partly Cloudy
12:53 PM 80.1 °F 81.9 °F 64.9 °F 60% 30.05 in 10.0 mi South 15.0 mph - N/A   Clear
1:53 PM 81.0 °F 82.2 °F 63.0 °F 54% 30.03 in 10.0 mi South 12.7 mph - N/A   Partly Cloudy
2:53 PM 80.1 °F 82.1 °F 66.0 °F 62% 30.03 in 10.0 mi SSW 13.8 mph - N/A   Partly Cloudy
3:53 PM 79.0 °F - 68.0 °F 69% 30.04 in 10.0 mi South 10.4 mph - N/A   Clear
4:53 PM 78.1 °F - 68.0 °F 71% 30.05 in 10.0 mi South 10.4 mph - N/A   Clear
5:53 PM 75.0 °F - 69.1 °F 82% 30.07 in 10.0 mi SSE 5.8 mph - N/A   Clear
6:53 PM 72.0 °F - 69.1 °F 91% 30.09 in 10.0 mi SE 4.6 mph - N/A   Clear
7:53 PM 72.0 °F - 69.1 °F 91% 30.11 in 10.0 mi Calm Calm - N/A   Partly Cloudy
8:53 PM 71.1 °F - 70.0 °F 96% 30.11 in 10.0 mi SSE 9.2 mph - N/A   Clear
9:53 PM 70.0 °F - 69.1 °F 97% 30.12 in 10.0 mi SSE 5.8 mph - N/A   Clear
10:53 PM 70.0 °F - 69.1 °F 97% 30.12 in 10.0 mi SE 4.6 mph - N/A   Clear
11:53 PM 69.1 °F - 69.1 °F 100% 30.12 in 9.0 mi Calm Calm - N/A   Partly Cloudy